Search for airport 
image banner adimage banner adimage banner ad
image banner ad

SSWU - Quick Heliport

Located in Goiânia, Brazil

ICAO - SSWU, IATA -

Data provided by Airmate  

General information

Coordinates: S28°23'6" W54°44'36"
Elevation is 869 feet MSL.
Magnetic variation is -15° East
View others Airports in Rio Grande do Sul

Operational data

Special qualification required
Current time UTC:
Current local time:
Weather at : SBNM - Santo Ângelo Airport ( 57 km )
METAR: SBNM 242300Z AUTO 04011KT CAVOK 22/12 Q1015
View NOTAMs / SUP AIP / TFR affecting this airport [VIEW]
Communications frequencies: [VIEW]

Runways:

RWY identifierQFULength (ft)Width (ft)SurfaceLDA (ft)
10164059GRASS
28164059GRASS

Airport contact information

Address: Goiânia Brazil

Satellite view of SSWU